Location: Forst
(46.9333°N, 15.4333°E)
Time: 23:49:07
(UTC+00:00)

Lacrosse 5 rocket - Pass Details

Date: 24 April 2021
Orbit: 460 x 634 km, 57.0° (Epoch: 11 May)

Event Time Altitude Azimuth Distance (km) Brightness Sun altitude
Rises 18:51:08 0° 301° (WNW) 2,702 7.4 -8.8°
Reaches altitude 10° 18:53:43 10° 317° (NW) 1,844 5.4 -9.2°
Maximum altitude 18:57:01 22° 9° (N) 1,281 3.5 -9.7°
Drops below altitude 10° 19:00:27 10° 61° (ENE) 1,926 3.8 -10.2°
Enters shadow 19:02:22 - 73° (ENE) 2,560 4.3 -10.5°
